Location: *
(47.2969°N, 10.2930°E)
Time: 18:56:21
(UTC+00:00)

STARLINK-1211 - Pass Details

Date: 09 April 2020
Orbit: 548 x 550 km, 53.0° (Epoch: 25 May)

Event Time Altitude Azimuth Distance (km) Brightness Sun altitude
Rises 18:32:38 0° 298° (WNW) 2,713 9.5 -6.1°
Reaches altitude 10° 18:34:52 10° 298° (WNW) 1,818 8.0 -6.5°
Maximum altitude 18:39:00 89° 12° (NNE) 551 3.6 -7.2°
Drops below altitude 10° 18:43:08 10° 119° (ESE) 1,810 5.6 -7.8°
Enters shadow 18:43:10 10° 119° (ESE) 1,828 5.6 -7.8°
